Notices

What's New in latest Release from April 7th, 2021:

- Updated Glossary, including Speed of Maximum Gust, and Total Hourly Precipitation

- Updated national and regional climate services offices contacts and prices information

- Addition of station inventory lists for 1981-2010, 1971-2000, and 1961-1990 Normals.

If you haven't already, please take our survey and provide feedback about our website: https://eccc.sondage-survey.ca/f/LanguageSelection.aspx?s=442ca660-fcf1-47c0-95a9-59707d6fd709

Hourly Data Report for August 15, 2016

TORONTO CITY
ONTARIO

43°40'00.000" N
79°24'00.000" W
112.50 m
6158355
71508
XTO

Download Data

Hourly Data (August 2016)
Hourly Data Report for August 15, 2016
TIME
LST
Temp Definition
°C
Dew Point Definition
°C
Rel Hum Definition
%
Precip. Amount Definition
mm

Wind Dir Definition
10's deg

Wind Spd Definition
km/h
Visibility Definition
km
Stn Press Definition
kPa
Hmdx Definition


Wind Chill Definition


Weather Definition


00:00 20.6 16.3 77 0.0 LegendMM LegendMM   100.60 25   LegendNANA
01:00 20.5 15.9 75 0.0 LegendMM LegendMM   100.64 25   LegendNANA
02:00 20.3 15.7 75 0.0 LegendMM LegendMM   100.65 25   LegendNANA
03:00 20.2 15.7 75 0.0 LegendMM LegendMM   100.67 25   LegendNANA
04:00 19.0 16.2 84 0.0 LegendMM LegendMM   100.72     LegendNANA
05:00 18.6 16.0 85 0.0 LegendMM LegendMM   100.77     LegendNANA
06:00 19.5 15.8 80 0.0 LegendMM LegendMM   100.83     LegendNANA
07:00 20.3 16.1 77 0.0 LegendMM LegendMM   100.86 25   LegendNANA
08:00 21.5 16.4 73 0.0 LegendMM LegendMM   100.86 26   LegendNANA
09:00 22.9 15.9 65 0.0 LegendMM LegendMM   100.90 27   LegendNANA
10:00 24.0 16.2 62 0.0 LegendMM LegendMM   100.94 29   LegendNANA
11:00 23.9 16.5 63 0.0 LegendMM LegendMM   100.95 29   LegendNANA
12:00 25.0 17.2 62 0.0 LegendMM LegendMM   100.92 30   LegendNANA
13:00 24.1 17.2 65 0.0 LegendMM LegendMM   100.92 30   LegendNANA
14:00 25.0 17.8 65 0.0 LegendMM LegendMM   100.88 31   LegendNANA
15:00 25.2 16.6 59 0.0 LegendMM LegendMM   100.81 30   LegendNANA
16:00 25.7 15.1 52 0.0 LegendMM LegendMM   100.77 30   LegendNANA
17:00 25.1 14.0 50 0.0 LegendMM LegendMM   100.76 28   LegendNANA
18:00 24.1 15.5 59 0.0 LegendMM LegendMM   100.69 28   LegendNANA
19:00 23.5 16.4 64 0.0 LegendMM LegendMM   100.70 28   LegendNANA
20:00 23.4 17.2 68 0.0 LegendMM LegendMM   100.72 29   LegendNANA
21:00 23.5 17.2 68 0.0 LegendMM LegendMM   100.75 29   LegendNANA
22:00 23.5 18.2 72 0.0 LegendMM LegendMM   100.76 30   LegendNANA
23:00 23.4 19.4 78 0.0 LegendMM LegendMM   100.72 30   LegendNANA

Notes on Data Quality.

Legend

  • E = Estimated
  • M = Missing
  • NA = Not Available*
  • [empty] = Indicates an unobserved value
Date modified: